SCP
0 0 0 0 0 0 0 0 0 0 0 0 0 0 0 0 0 0 0 0 0 0 0 0 0 0 0 0 0 0 1 0 0 0 0 0 0 0
0 0 0 0 0 0 0 0 0 0 0 0 0 0 0 0 0 0 0 0 0 0 0 0 0 0 0 0 0 0 0 0 0 0 0 0 0 0
0 0 0 0 0 0 0 0 0 0 0 0 0 0 0 0 0 0 0 0 0 0 0 0 0 0 0 0 0 0 0 0 0 0 0 0 0 0
0 0 0 0 0 0 0 0 0 0 0 0 0 0 0 0 0 0 0 0 0 0 0 0 0 0 0 0 0 0 0 0 0 0 0 0 0 0
0 0 0 0 0 0 0 0 0 0 0 0 0 0 0 0 0 0 0 0 0 0 0 0 0 0 0 0 0 0 0 0 0 0 0 0 0 0
0 0 0 0 0 0 0 0 0 0 0 0 -0 -0 0 0 0 0 0 0 0 0 0 0 0 0 0 0 0 0 0 0 0 0 0 0 0 0
0 0 0 0 0 0 0 0 0 0 0 0 0 -0 -0 -0 0 0 -0 -0 -0 -0 0 0 0 0 0 0 0 0 0 0 0 0 0 0 0 0
0 0 0 0 0 0 0 0 0 0 0 0 0 -0 -0 -0 -0 -0 -0 -0 -0 -0 -0 -0 0 0 0 0 0 0 0 0 0 0 0 0 0 0
0 0 0 0 0 0 0 0 0 0 0 0 0 0 0 0 -0 -0 -0 -0 -0 -0 -0 -0 -0 -0 0 0 0 0 0 0 0 0 0 0 0 0
0 0 0 0 0 0 0 0 0 0 0 0 0 0 0 0 0 -0 -0 -0 -0 -0 -0 -0 -0 -0 0 0 0 0 0 0 0 0 0 0 0 0
0 0 0 0 0 0 0 0 0 0 0 0 0 0 0 0 0 0 -0 -0 -0 -0 0 0 0 0 0 0 0 0 0 0 0 0 0 0 0 0
0 0 0 0 0 0 0 0 0 0 0 0 0 0 0 0 0 0 0 0 0 0 0 0 0 0 0 0 0 0 0 0 0 0 0 0 0 0
0 0 0 0 0 0 0 0 0 0 0 0 0 0 0 0 0 0 0 0 0 0 0 0 0 0 0 0 0 0 0 0 0 0 0 0 0 0
0 0 0 0 0 0 0 0 0 0 0 0 0 0 0 0 0 0 0 0 0 0 0 0 0 0 0 0 0 0 0 0 0 0 0 0 0 0
0 0 0 0 0 0 0 0 0 0 0 0 0 0 0 0 0 0 0 0 0 0 0 0 0 0 0 0 0 0 0 0 0 0 0 0 0 0
0 0 0 0 0 0 0 0 0 0 0 0 0 0 0 0 0 0 0 0 0 0 0 0 0 0 0 0 0 0 0 0 0 0 0 0 0 0
0 0 0 0 0 0 0 0 0 0 0 0 0 0 0 0 0 0 0 0 0 0 0 0 0 0 0 0 0 0 0 0 0 0 0 0 0 0
0 0 0 0 0 0 0 0 0 0 0 0 0 0 0 0 0 0 0 0 0 0 0 0 0 0 0 0 0 0 0 0 0 0 0 0 0 0
0 0 0 0 0 0 0 0 0 0 0 0 0 0 0 0 0 0 0 0 0 0 0 0 0 0 0 0 0 0 0 0 0 0 0 0 0 0
0 0 0 0 0 0 0 0 0 0 0 0 0 0 0 0 0 0 0 0 0 0 0 0 0 0 0 0 0 0 0 0 0 0 0 0 0 0
0 0 0 0 0 0 0 0 0 0 0 0 0 0 0 0 0 0 0 0 0 0 0 0 0 0 0 0 0 0 0 0 0 0 0 0 0 0
0 0 0 0 0 0 0 0 0 0 0 0 0 0 0 0 0 0 0 0 0 0 0 0 0 0 0 0 0 0 0 0 0 0 0 0 0 0
0 0 0 0 0 0 0 0 0 0 0 0 0 0 0 0 0 0 0 0 0 0 0 0 0 0 0 0 0 0 0 0 0 0 0 0 0 0
Wind_Speed
5 5 4 4 4 4 4 4 4 4 6 5 4 3 3 4 7 7 6 9 16 19 15 17 16 16 16 17 22 24 24 19 16 19 20 21 21 21
4 4 4 4 4 4 4 4 4 4 6 5 4 3 3 5 8 8 9 10 11 15 15 13 14 14 14 15 18 20 20 18 20 23 24 23 21 20
5 4 6 5 4 4 4 4 4 3 5 5 3 3 3 5 6 5 6 5 6 11 14 14 13 14 14 15 17 21 24 26 26 23 23 23 23 21
5 4 6 4 6 4 3 3 2 3 3 5 3 2 3 5 6 6 5 5 5 10 14 13 13 12 14 14 17 20 24 26 24 22 24 25 25 22
3 3 4 3 3 2 2 1 1 1 2 4 5 2 3 3 6 7 6 6 6 9 13 11 10 10 12 15 16 18 20 22 21 22 22 22 21 21
6 6 5 4 2 1 1 0 1 1 1 3 5 4 4 4 4 6 8 5 5 4 4 6 7 9 11 15 16 15 16 20 24 23 20 19 20 21
8 8 8 12 14 11 7 4 3 2 2 3 5 4 5 4 5 6 9 7 6 4 3 5 5 4 6 9 11 11 14 17 23 26 24 21 19 20
8 8 8 11 13 14 14 12 11 8 6 5 5 6 7 5 5 6 8 9 8 3 3 4 2 4 4 5 9 11 14 17 20 21 20 21 22 22
7 7 7 8 9 7 10 12 11 13 12 9 7 8 8 8 8 9 8 9 9 4 3 3 4 6 6 7 11 13 16 18 20 21 23 24 24 24
6 5 5 5 8 10 9 8 7 8 9 8 7 9 11 10 8 11 12 12 12 7 5 7 5 5 4 5 10 13 14 17 20 21 24 26 27 27
5 6 6 5 11 15 10 8 9 9 11 15 17 19 23 23 18 11 9 10 10 8 5 5 5 4 4 6 8 13 15 16 18 21 23 24 25 25
3 5 10 10 13 14 9 7 7 9 9 10 12 15 16 17 18 12 8 9 10 9 5 5 6 4 5 6 7 7 10 16 19 20 20 22 22 15
4 4 6 14 15 14 11 6 9 10 9 8 8 8 8 9 9 9 8 8 10 10 8 6 6 6 7 5 3 5 7 8 9 10 15 18 21 19
4 4 6 14 14 13 10 12 15 11 6 7 8 8 8 8 9 11 13 12 12 13 11 11 8 8 6 5 5 3 4 5 5 5 5 9 16 21
5 8 11 13 12 9 12 14 11 6 6 7 8 9 9 10 11 11 12 13 13 13 12 13 11 10 10 10 7 5 5 4 5 5 4 4 5 8
4 6 9 9 9 9 9 8 6 6 7 6 7 9 10 10 10 10 10 11 11 10 12 14 13 13 13 15 12 7 8 7 6 6 5 5 5 6
5 4 5 5 6 6 6 6 6 6 6 6 7 9 9 10 10 10 10 11 11 12 11 11 12 11 13 16 15 12 9 6 7 7 5 2 1 6
5 4 5 6 6 6 7 7 7 8 7 8 8 8 9 10 12 11 11 12 11 12 11 11 11 8 5 8 10 8 10 7 5 7 7 6 2 3
3 4 5 5 6 6 6 6 7 8 9 8 9 9 10 11 13 12 12 12 13 13 12 11 11 11 11 11 5 6 8 8 8 5 4 4 5 4
2 3 4 5 5 6 6 6 7 8 8 8 9 9 10 10 11 11 12 13 13 13 13 12 12 12 13 10 5 2 2 9 11 8 5 7 10 9
4 4 5 5 6 6 6 7 8 9 10 9 10 10 10 11 12 12 13 19 18 15 14 13 13 15 9 5 5 2 3 4 8 12 12 11 8 5
4 5 5 5 6 5 6 7 8 10 10 10 11 11 11 12 13 14 13 14 14 13 14 9 5 6 5 7 8 8 8 11 14 16 13 9 9 10
5 5 6 6 6 6 6 7 8 9 10 11 11 12 12 13 13 13 14 13 12 11 6 2 1 3 4 9 12 12 15 13 12 12 13 18 22 23
Wind_Direction
244 242 234 247 224 214 198 190 200 238 268 266 272 280 274 274 265 258 251 255 265 266 252 236 228 236 237 237 235 222 207 196 202 205 207 212 214 218
247 245 245 242 238 220 209 206 201 215 258 256 253 265 278 284 270 265 263 257 260 274 280 259 234 228 236 233 229 213 198 185 203 203 201 199 206 217
262 247 254 247 238 223 205 209 209 194 249 271 263 268 274 279 284 272 260 260 260 266 276 276 260 232 222 229 223 196 190 191 202 199 201 197 200 207
274 263 259 252 244 233 206 207 210 201 222 274 289 295 291 291 285 286 275 258 259 268 263 263 264 252 226 208 210 196 193 193 189 190 200 204 196 196
326 306 286 270 260 238 193 193 204 215 225 263 280 286 291 297 301 298 285 269 255 263 264 257 261 260 240 208 206 205 198 189 183 191 199 199 192 192
30 30 13 22 33 30 354 296 262 263 256 268 276 273 274 279 282 291 296 284 270 249 256 273 262 254 246 218 206 201 205 196 187 186 187 191 189 188
25 21 24 27 24 20 16 8 360 335 310 297 293 290 288 297 291 295 295 297 275 233 218 237 234 241 250 234 218 207 197 206 203 187 183 189 189 188
22 15 15 22 12 7 0 355 353 342 333 315 298 292 292 287 277 281 289 296 297 248 225 254 201 246 242 246 225 206 202 196 201 198 187 196 196 195
22 20 15 5 352 347 354 354 358 347 332 319 304 297 299 300 303 297 287 281 280 266 210 253 200 229 224 226 230 217 199 200 202 203 199 200 202 200
12 5 358 346 335 357 355 346 345 339 327 318 312 308 299 293 284 285 289 284 276 266 197 256 249 236 234 240 234 228 214 202 205 209 208 207 206 206
356 350 343 337 332 348 349 342 336 328 326 323 318 312 305 300 295 290 284 286 282 272 215 232 252 239 221 220 217 217 219 216 210 210 212 212 210 209
351 351 345 333 330 335 341 351 331 313 324 331 321 312 306 301 297 284 275 277 284 279 239 228 249 213 241 221 211 208 216 222 221 219 219 215 209 209
348 334 326 333 338 336 342 340 311 330 342 325 307 305 305 306 306 300 284 271 267 266 276 258 247 228 232 246 232 211 209 215 217 222 225 220 212 206
331 311 322 336 344 349 348 336 342 349 332 320 315 311 310 308 308 308 304 296 288 284 280 274 263 253 249 240 238 212 207 206 205 208 210 213 210 202
322 333 341 346 350 352 349 353 356 347 329 322 315 308 304 301 299 296 292 291 286 279 274 266 262 260 254 248 228 197 187 192 190 187 183 176 187 190
334 347 341 345 347 349 349 350 346 332 322 314 304 301 300 298 294 297 293 293 289 277 267 259 254 252 249 252 239 210 187 181 196 195 183 184 176 183
353 357 341 343 343 342 337 333 326 321 319 314 305 301 301 301 296 298 292 288 281 282 280 270 259 252 250 246 242 223 198 185 185 177 145 118 132 164
354 341 336 335 332 328 322 319 319 320 318 314 307 303 300 299 297 294 290 285 279 275 271 273 270 261 269 264 238 211 192 180 169 176 174 156 149 156
344 322 315 313 311 308 306 305 307 309 309 302 296 293 292 292 293 290 291 286 280 276 272 267 262 250 238 243 249 266 191 162 153 148 156 144 146 154
284 278 290 297 301 302 303 303 303 302 298 291 289 290 288 287 287 283 285 283 280 278 275 263 251 240 238 233 212 280 216 156 155 142 113 92 94 99
289 292 296 298 298 297 298 297 295 292 295 296 293 292 291 289 283 282 285 284 281 279 275 264 251 243 222 167 124 98 63 94 144 143 136 125 114 110
276 279 280 283 287 286 286 287 289 292 294 294 294 294 292 289 287 289 286 283 282 278 273 264 220 180 167 164 150 132 107 94 93 100 103 114 144 154
275 282 284 286 288 288 290 293 295 295 293 292 292 292 292 288 288 289 284 281 279 275 260 227 126 113 109 125 125 117 112 107 99 90 86 98 103 110